Weather History for ESNK - March, 2013

Change the Weather History Date:

Monday, March 4, 2013

  Actual Average Record
Temperature  
Mean Temperature 26 °F -  
Max Temperature 32 °F - - ()
Min Temperature 19 °F - - ()
Degree Days  
Heating Degree Days 40    
Moisture  
Dew Point 25 °F    
Average Humidity 89    
Maximum Humidity 100    
Minimum Humidity 80    
Precipitation  
Precipitation 0.00 in - - ()
Sea Level Pressure  
Sea Level Pressure 29.81 in    
Wind  
Wind Speed 3 mph ()    
Max Wind Speed 8 mph    
Max Gust Speed -    
Visibility 4.7 miles    
Events Snow    
T = Trace of Precipitation, MM = Missing Value Source: Averaged Metar Reports

Daily Weather History Graph

Daily Weather History Graph

Search for Another Location

Airport or City:

Trip Planner

Search our weather history database for the weather conditions in past years. The results will help you decide how hot, cold, wet, or windy it might be!

Date:

Astronomy

Mar. 04, 2013 Rise Set
Actual Time 6:43 AM CET 5:18 PM CET
Civil Twilight 5:57 AM CET 6:04 PM CET
Nautical Twilight 5:04 AM CET 6:58 PM CET
Astronomical Twilight 4:09 AM CET 7:53 PM CET
Moon 2:00 AM CET (3/4) 8:14 AM CET (3/4)
Length of Visible Light 12h 07m
Length of Day
10h 35m
Waning Gibbous, 55% of the Moon is Illuminated
Mar 4
Waning Gibbous
Mar 4
Last Quarter
Mar 11
New
Mar 19
First Quarter
Mar 27
Full

Hourly Weather History & Observations

Time (CET) Temp. Windchill Dew Point Humidity Pressure Visibility Wind Dir Wind Speed Gust Speed Precip Events Conditions
6:20 AM 19.4 °F - 17.6 °F 93% 29.80 in 1.9 mi Variable 2.3 mph - N/A Snow Light Snow
6:50 AM 19.4 °F - 17.6 °F 93% 29.80 in 1.9 mi Variable 2.3 mph - N/A Snow Light Snow
7:20 AM 21.2 °F - 19.4 °F 93% 29.77 in 1.9 mi Variable 2.3 mph - N/A Snow Light Snow
7:50 AM 21.2 °F - 19.4 °F 93% 29.77 in 2.5 mi Variable 2.3 mph - N/A Snow Light Snow
8:20 AM 23.0 °F 18.4 °F 23.0 °F 100% 29.77 in 2.5 mi North 3.5 mph - N/A Snow Light Snow
8:50 AM 23.0 °F 18.4 °F 21.2 °F 93% 29.77 in 2.8 mi North 3.5 mph - N/A Snow Light Snow
9:20 AM 24.8 °F 20.5 °F 23.0 °F 93% 29.77 in 1.9 mi North 3.5 mph - N/A Snow Snow
9:50 AM 24.8 °F 20.5 °F 23.0 °F 93% 29.77 in 4.3 mi North 3.5 mph - N/A Snow Light Snow
10:20 AM 24.8 °F 20.5 °F 23.0 °F 93% 29.80 in 6.2 mi NW 3.5 mph - N/A Snow Light Snow
10:50 AM 28.4 °F 22.2 °F 24.8 °F 86% 29.80 in 6.2 mi North 5.8 mph - N/A   Overcast
11:20 AM 28.4 °F 22.2 °F 26.6 °F 93% 29.80 in 6.2 mi West 5.8 mph - N/A   Overcast
11:50 AM 30.2 °F - 26.6 °F 86% 29.80 in 6.2 mi Calm Calm - N/A   Overcast
12:50 PM 32.0 °F - 26.6 °F 80% 29.80 in 6.2 mi Calm Calm - N/A   Mostly Cloudy
1:20 PM 32.0 °F - 26.6 °F 80% 29.80 in 6.2 mi Calm Calm - N/A   Overcast
2:20 PM - - - N/A% 29.83 in - North - - N/A   Overcast
2:50 PM 32.0 °F - 26.6 °F 80% 29.83 in 6.2 mi SE 2.3 mph - N/A   Unknown
3:20 PM 32.0 °F 28.7 °F 26.6 °F 80% 29.83 in 6.2 mi East 3.5 mph - N/A   Mostly Cloudy
3:50 PM 32.0 °F 28.7 °F 26.6 °F 80% 29.83 in 6.2 mi ESE 3.5 mph - N/A   Mostly Cloudy
4:20 PM 32.0 °F 28.7 °F 26.6 °F 80% 29.83 in 6.2 mi ESE 3.5 mph - N/A   Mostly Cloudy
4:50 PM 30.2 °F 23.4 °F 26.6 °F 86% 29.83 in 6.2 mi ESE 6.9 mph - N/A   Mostly Cloudy
5:20 PM 30.2 °F 23.4 °F 26.6 °F 86% 29.83 in 6.2 mi East 6.9 mph - N/A   Mostly Cloudy
5:50 PM 30.2 °F 25.4 °F 26.6 °F 86% 29.86 in 6.2 mi ESE 4.6 mph - N/A Snow Light Snow
6:20 PM 30.2 °F 22.6 °F 26.6 °F 86% 29.86 in - ESE 8.1 mph - N/A Snow Light Snow
6:50 PM 28.4 °F 22.2 °F 26.6 °F 93% 29.86 in 3.1 mi ESE 5.8 mph - N/A Snow Light Snow
7:20 PM 28.4 °F 21.2 °F 26.6 °F 93% 29.86 in - SSE 6.9 mph - N/A Snow Light Snow
7:50 PM 28.4 °F 23.3 °F 26.6 °F 93% 29.86 in 3.1 mi SSE 4.6 mph - N/A Snow Light Snow
8:20 PM 28.4 °F 21.2 °F 26.6 °F 93% 29.86 in 6.2 mi SSE 6.9 mph - N/A Snow Snow Grains